Powrót do katalogu

COSMOS 2251 DEB

AktywnyLEO
NORAD 34413·DEBRIS·🇷🇺 Russia

Wystrzelony Jun 16, 1993 z Plesetsk Cosmodrome

Loading…

Następne Przeloty (najbliższe 24 godziny)

TLE

ŚwieżeSource: Space-Track

Epoka: Sep 14, 2026, 08:11 UTC

1 34413U 93036RE  26257.34111204  .00001722  00000-0  63992-3 0  9998
2 34413  74.0287 123.6011 0090990 135.7751 341.4684 14.30567501910704

Śledź COSMOS 2251 DEB w czasie rzeczywistym z AllMySat

Download on the App Store